カタログに戻る

METEOR 1-22

運用中気象PO
NORAD 8293·PAYLOAD·🇷🇺 Russia

打ち上げ Sep 18, 1975 から Plesetsk Cosmodrome

Loading…

次のパス (今後24時間)

TLE

最新Source: Space-Track

元期: Sep 14, 2026, 10:37 UTC

1 08293U 75087A   26257.44291482  .00000002  00000-0 -58844-5 0  9992
2 08293  81.2524 258.1531 0075818  73.8021 287.1477 14.12941235625675

AllMySatでMETEOR 1-22をリアルタイム追跡

Download on the App Store